Torna al catalogo

COSMOS 2304

AttivoMilitarePO
NORAD 23446·PAYLOAD·🇷🇺 Russia

Lanciato Dec 26, 1994 da Plesetsk Cosmodrome

Loading…

Prossimi Passaggi (prossime 24 ore)

TLE

AggiornatoSource: Space-Track

Epoca: Sep 14, 2026, 12:30 UTC

1 23446U 94086F   26257.52091671 -.00000006  00000-0 -91657-4 0  9999
2 23446  82.5656 263.1602 0003716 350.9291 177.8230 12.62207333460950

Traccia COSMOS 2304 in tempo reale con AllMySat

Download on the App Store